Vertical_Velocity
-3 -2 -4 -2 -1 -1 -5 -0 1 -1 -4 1 1 0 1 3 3 2 2 2 1 0 -0 -1 -1 -1 -2 -2 -2 -2 -3 -3 -2 -2 -1 -1 -1 -1 -2 -2 -2 -2 -2 -1 -1 -1 -1 -1 -0 0 0 1 1 1 1 1 1 2 2 2 2 2 2 2 2 2 2 2 2 1 1 1 0 0 -0 -0 -0 -0 -0 -0 -0 0 0 -0 -0 -0
-3 -2 -2 -2 0 0 -5 -1 2 2 -2 0 2 2 3 4 3 2 2 1 1 -0 -1 -2 -2 -2 -2 -3 -2 -2 -2 -2 -1 -1 -1 -1 -1 -2 -2 -2 -1 -1 -1 -1 -1 -1 -0 -0 0 0 1 1 1 1 1 1 1 1 1 1 1 1 1 1 1 1 2 2 1 1 1 1 0 -0 -0 -0 -0 -0 -0 -0 -0 -0 -0 -0 -0 -1
-1 -2 -3 -1 1 2 -2 -1 1 3 2 1 1 3 5 3 2 2 2 -1 -1 -1 -1 -3 -3 -2 -2 -2 -2 -1 -1 -1 -1 -1 -1 -1 -1 -1 -1 -1 -1 -1 -1 -1 -0 -0 -0 0 0 1 1 1 1 1 1 1 1 1 1 1 1 1 1 1 1 1 1 1 1 1 1 0 0 -0 -0 0 0 0 0 0 0 0 0 -0 -0 -0
1 -2 -5 0 2 3 1 2 2 2 5 3 1 1 4 3 1 -0 0 -1 -2 -3 -3 -2 -2 -2 -1 -1 -0 -0 -1 -1 -1 -1 -1 -1 -1 -1 -1 -1 -1 -0 -0 -0 -0 -0 0 0 0 1 1 1 1 1 1 1 1 1 1 1 1 1 1 1 1 1 1 1 1 1 1 0 0 0 1 1 1 1 0 0 0 0 0 -0 -0 -0
1 -1 -4 3 4 2 1 4 4 2 4 3 2 0 1 1 -0 -1 -2 -1 -2 -3 -3 -1 -1 -1 -0 0 0 0 -0 -1 -1 -1 -1 -1 -0 -0 -0 -0 -0 -0 -0 -0 -0 0 0 0 0 0 1 1 1 1 1 0 0 0 0 0 0 0 0 1 1 1 1 1 1 1 1 1 1 1 1 1 1 1 0 -0 -0 -0 -0 -0 -0 -0
1 1 -1 5 5 3 1 3 3 3 2 0 0 0 -1 -1 -1 -1 -2 -1 -1 -1 -1 -1 0 0 1 1 1 0 -0 -0 -0 -0 -0 -0 0 0 -0 -0 -0 -0 -0 -0 -0 0 0 0 0 0 1 1 1 1 1 0 0 0 0 0 0 1 1 1 1 2 2 2 2 1 1 1 1 1 1 1 1 0 -0 -0 -0 -0 -0 -0 -0 -0
2 3 4 4 3 2 4 1 1 2 2 -2 -2 -1 -1 -1 -1 -0 -1 0 0 0 0 0 1 1 1 1 1 0 0 -0 -0 0 0 0 0 0 0 -0 -0 -0 -0 -0 -0 0 0 0 0 0 0 0 1 1 0 0 1 1 1 1 1 2 2 2 2 2 2 2 2 1 1 1 1 1 1 1 1 1 0 0 0 0 0 -0 -0 -0
2 2 7 4 0 -1 3 0 -0 0 1 -1 -1 -1 -1 -0 0 1 1 1 1 1 1 1 1 0 0 1 1 1 1 1 1 0 1 1 1 0 -0 -0 -0 -0 -0 -0 -0 0 0 0 0 0 0 0 1 1 1 1 1 1 1 2 2 2 2 2 2 2 1 1 0 0 0 0 0 1 1 1 1 1 1 1 1 0 -0 -0 -1 -1
2 0 3 4 1 -2 -2 -1 0 1 -0 0 1 1 -0 1 1 1 1 2 2 2 1 1 1 0 -0 0 1 2 2 2 1 1 0 0 -0 -0 -0 -0 -0 -0 -0 0 0 0 0 0 0 0 1 1 1 1 1 1 1 1 1 1 1 1 0 0 -0 -0 -1 -1 -1 -1 -0 0 1 1 1 1 1 1 1 1 0 -0 -1 -1 -2 -2
2 1 -1 1 2 0 -3 -2 0 1 -0 0 1 2 2 2 2 2 2 1 1 1 1 2 1 1 -0 0 1 2 2 2 2 1 -0 -1 -1 -1 -1 -1 -1 -1 -0 -0 -0 -0 0 0 0 1 1 1 1 1 1 1 0 -0 -0 -1 -1 -1 -1 -2 -2 -1 -1 -1 -1 -0 0 1 1 1 1 1 1 1 0 0 -0 -1 -1 -2 -2 -3
1 1 -1 -1 0 1 -1 -2 -0 1 0 0 1 2 2 2 2 3 2 2 1 1 1 2 2 2 1 1 1 1 2 3 2 1 0 -1 -2 -2 -2 -1 -1 -1 -1 -0 -0 0 0 0 1 1 1 1 1 1 1 0 -0 -1 -1 -2 -2 -2 -2 -2 -2 -1 -1 -0 -0 0 1 1 1 1 0 0 -0 -0 -1 -1 -1 -1 -2 -2 -3 -3
-1 -0 -0 -1 -0 0 -0 -1 -0 -0 0 0 1 1 1 2 2 3 4 3 2 2 2 2 2 2 2 1 1 0 1 2 2 2 1 -0 -1 -2 -2 -2 -1 -0 -0 0 0 1 1 0 1 1 1 1 0 0 -0 -0 -1 -1 -1 -1 -1 -1 -1 -1 -1 -1 -1 -0 -0 -0 -0 -0 -0 -1 -1 -1 -1 -1 -1 -2 -2 -2 -2 -3 -3 -3
-1 -1 -1 -1 -0 -0 -0 -0 -0 -0 -0 -0 -0 0 0 1 2 3 4 3 3 3 3 3 3 2 1 1 0 -1 -1 -0 1 2 2 1 -1 -2 -2 -2 -1 -0 -0 0 0 0 -0 -0 -0 -0 -0 -0 -1 -1 -1 -1 -1 -1 -1 -0 -0 -0 -1 -1 -1 -1 -1 -1 -1 -1 -1 -1 -1 -2 -2 -2 -2 -2 -2 -2 -2 -3 -3 -3 -3 -4
-1 -1 -1 -1 -0 -0 -0 0 0 1 1 0 0 0 0 1 1 2 3 2 2 3 4 4 3 2 0 -0 -1 -2 -2 -2 -1 0 2 2 0 -2 -2 -3 -3 -2 -1 -1 -2 -2 -2 -2 -2 -2 -2 -2 -2 -2 -1 -1 -1 -1 -0 -0 0 0 -0 -0 -0 -1 -1 -1 -1 -2 -2 -2 -2 -2 -2 -2 -2 -3 -3 -3 -3 -3 -3 -3 -4 -4
-1 -1 -1 -1 -1 -1 -0 0 1 1 1 1 1 1 1 1 1 1 2 2 1 2 3 4 3 2 1 -1 -2 -3 -3 -3 -3 -1 1 1 1 -1 -2 -3 -4 -5 -3 -3 -4 -4 -4 -3 -3 -3 -4 -3 -2 -2 -1 -1 -1 -1 -0 0 0 0 0 0 -0 -1 -1 -1 -2 -2 -2 -2 -2 -2 -2 -2 -2 -3 -3 -3 -3 -4 -4 -4 -5 -5
-2 -1 -0 -0 -0 -0 0 1 1 1 1 1 1 2 2 1 1 1 2 1 1 2 3 3 3 3 2 -0 -1 -2 -3 -4 -3 -2 0 1 0 -1 -1 -3 -5 -7 -6 -5 -5 -5 -5 -4 -3 -3 -3 -3 -2 -1 -1 -0 -0 -0 0 1 1 1 1 1 0 -0 -0 -1 -1 -1 -1 -2 -2 -2 -2 -2 -3 -3 -3 -3 -4 -4 -4 -5 -5 -6
-1 -1 -0 0 0 0 1 1 1 1 1 1 1 1 1 1 1 1 1 1 1 2 2 2 3 3 2 1 -0 -1 -1 -1 -3 -3 -0 0 -0 -1 -2 -3 -5 -7 -8 -6 -6 -6 -5 -5 -4 -3 -3 -2 -1 -1 -0 -0 0 1 1 1 1 1 1 1 1 0 0 -0 -0 -1 -1 -1 -2 -2 -2 -3 -3 -3 -3 -4 -4 -4 -5 -5 -6 -6
-1 -0 0 0 0 0 1 1 1 1 1 1 0 0 1 1 1 1 1 1 1 1 1 2 2 2 2 0 -2 -3 -1 -0 -2 -4 -3 -2 -2 -2 -2 -2 -4 -6 -7 -7 -7 -6 -5 -4 -3 -3 -2 -2 -1 -0 0 0 1 1 1 1 1 1 0 0 0 0 0 -0 -0 -1 -1 -1 -2 -2 -2 -3 -3 -3 -4 -4 -4 -4 -5 -5 -6 -6
-1 -0 0 -0 -0 -0 0 0 0 0 1 0 1 1 1 0 0 1 1 1 1 1 1 2 2 2 2 1 -3 -5 -3 -2 -3 -5 -6 -5 -4 -3 -3 -2 -3 -4 -5 -5 -6 -5 -4 -3 -3 -2 -1 -1 -0 0 1 1 1 1 0 0 -0 -0 -0 -1 -1 -1 -1 -1 -1 -1 -1 -2 -2 -2 -3 -3 -3 -4 -4 -4 -5 -5 -5 -5 -5 -6
-1 -1 -0 -0 -0 -0 -0 -0 0 1 1 1 1 1 1 0 0 0 -0 0 0 1 1 2 2 2 3 2 -1 -4 -5 -4 -4 -5 -6 -5 -4 -4 -3 -1 -2 -4 -5 -6 -5 -4 -3 -3 -3 -2 -1 -1 -0 -0 -0 -0 -0 -0 -1 -1 -1 -1 -1 -1 -2 -2 -2 -2 -2 -2 -2 -3 -3 -3 -4 -4 -4 -5 -5 -5 -5 -5 -5 -5 -5 -5
-1 -1 -0 0 1 1 0 0 1 1 1 1 1 1 0 0 0 0 -0 0 0 1 1 2 2 2 3 3 1 -3 -5 -3 -4 -5 -6 -4 -3 -3 -2 -1 -1 -3 -5 -7 -6 -5 -3 -3 -3 -3 -2 -2 -2 -1 -1 -1 -1 -1 -2 -2 -2 -2 -2 -2 -2 -2 -3 -3 -3 -3 -3 -4 -4 -4 -5 -5 -5 -5 -6 -5 -5 -5 -5 -5 -4 -4
-0 -0 -0 1 1 1 0 0 1 1 1 1 1 0 -0 -0 -0 -0 -1 0 0 1 1 1 2 2 4 4 2 -0 -2 -1 -1 -2 -3 -3 -4 -4 -3 0 1 -1 -3 -6 -7 -6 -5 -4 -4 -4 -3 -3 -3 -2 -2 -2 -2 -2 -2 -2 -3 -3 -3 -3 -3 -3 -4 -4 -4 -4 -4 -5 -5 -5 -6 -6 -6 -6 -6 -6 -6 -5 -5 -4 -4 -4
0 0 0 1 1 1 0 0 0 0 0 1 0 -0 -1 -0 -0 -1 -1 -0 0 0 0 0 1 2 3 4 4 3 1 1 1 1 2 1 -2 -4 -2 1 1 -0 -3 -5 -5 -6 -6 -6 -5 -5 -5 -4 -4 -3 -3 -3 -3 -3 -3 -3 -3 -3 -3 -4 -4 -4 -4 -5 -5 -5 -5 -6 -6 -7 -7 -7 -8 -8 -7 -7 -6 -5 -5 -4 -4 -3
-0 -0 0 0 0 0 0 0 0 0 0 0 0 -0 -0 -0 -0 -0 -1 -1 -1 -1 -1 -1 -0 0 1 4 6 6 4 3 4 4 5 4 2 1 1 3 2 -0 -4 -5 -4 -4 -6 -7 -7 -6 -5 -5 -5 -4 -4 -4 -4 -4 -4 -4 -4 -4 -4 -5 -5 -5 -5 -6 -6 -6 -6 -7 -7 -8 -8 -8 -9 -9 -8 -8 -7 -6 -5 -4 -4 -3
-1 -1 -0 -0 0 0 1 0 0 0 1 0 0 0 0 0 -0 -0 -1 -1 -1 -1 -1 -1 -1 -1 -1 3 6 7 6 5 6 6 6 5 4 3 2 4 5 2 -3 -6 -5 -4 -4 -6 -8 -8 -6 -6 -6 -5 -5 -5 -5 -5 -5 -5 -5 -5 -5 -5 -6 -6 -6 -6 -7 -7 -7 -8 -8 -9 -9 -9 -9 -9 -9 -8 -7 -6 -5 -4 -4 -3
-1 -0 -0 0 0 0 1 1 1 1 1 1 1 0 0 0 -0 -0 -1 -1 -1 -1 -1 -1 -2 -2 -1 2 5 6 6 6 6 6 6 6 5 3 1 4 5 5 -0 -4 -5 -4 -3 -5 -7 -8 -7 -8 -7 -6 -6 -6 -6 -6 -6 -6 -6 -5 -6 -6 -6 -6 -7 -7 -7 -8 -8 -9 -9 -9 -10 -10 -10 -10 -9 -9 -8 -7 -6 -5 -4 -4
-0 -0 0 0 0 1 1 1 1 1 1 1 1 0 0 0 -0 -1 -2 -2 -1 -0 -0 -1 -2 -2 -2 1 3 5 6 6 5 4 5 7 6 4 1 3 5 6 3 -2 -4 -4 -2 -3 -5 -6 -7 -8 -8 -7 -7 -7 -7 -7 -7 -7 -7 -6 -6 -6 -7 -7 -7 -8 -8 -8 -9 -9 -10 -10 -10 -10 -10 -10 -10 -9 -8 -7 -6 -6 -5 -5
0 0 1 1 1 1 1 1 1 1 1 1 1 0 0 0 -0 -1 -3 -2 -0 1 -0 -1 -1 -1 -2 -2 -1 2 5 6 4 2 3 7 6 4 1 3 6 7 7 2 -2 -5 -3 -3 -3 -4 -5 -7 -7 -8 -8 -8 -8 -8 -8 -8 -8 -8 -7 -7 -7 -8 -8 -8 -9 -9 -10 -10 -10 -11 -11 -11 -10 -10 -10 -9 -8 -8 -7 -6 -6 -5
0 1 1 1 1 1 1 1 1 1 1 1 1 0 0 1 0 -1 -3 -1 0 1 -0 -0 -0 0 -1 -2 -2 -1 3 5 4 3 4 6 4 1 0 4 5 7 9 7 3 -3 -6 -5 -4 -3 -4 -6 -7 -7 -8 -8 -8 -8 -9 -9 -9 -9 -8 -8 -8 -9 -9 -9 -9 -10 -10 -10 -11 -11 -11 -11 -10 -10 -10 -10 -9 -8 -8 -7 -6 -6
0 1 1 1 1 1 1 1 1 1 1 1 0 0 0 1 1 0 -1 0 1 1 -0 -0 -0 0 0 -1 -1 -2 -1 1 3 4 6 6 2 -1 -1 2 3 4 8 11 10 5 -3 -6 -6 -4 -4 -5 -6 -6 -7 -7 -7 -8 -8 -9 -10 -10 -9 -9 -9 -9 -9 -10 -10 -10 -10 -10 -10 -10 -10 -10 -10 -10 -10 -10 -9 -9 -8 -7 -7 -6
0 0 0 -0 0 0 0 0 0 0 0 0 0 0 1 1 1 1 1 1 1 1 1 0 0 0 1 2 1 -1 -3 -2 0 3 6 6 2 -1 -0 1 0 -0 3 9 13 12 7 0 -3 -5 -4 -5 -5 -6 -6 -6 -6 -7 -7 -8 -9 -10 -9 -9 -9 -9 -9 -10 -10 -10 -10 -10 -10 -9 -9 -10 -10 -10 -10 -10 -10 -9 -9 -8 -7 -7
-0 -0 -0 -1 -1 -0 -0 -0 -0 -0 0 0 1 1 1 1 1 1 1 1 2 2 2 1 0 0 1 2 2 1 -1 -1 -0 2 5 6 2 -1 -0 2 1 -2 -3 2 8 11 12 8 4 0 -1 -3 -5 -6 -6 -5 -5 -6 -6 -6 -8 -9 -9 -8 -9 -9 -8 -9 -9 -9 -9 -9 -9 -9 -9 -9 -9 -9 -10 -10 -10 -10 -9 -8 -8 -7
-0 -0 -0 -0 -0 -0 -0 -0 0 0 1 1 1 1 1 1 1 1 1 1 2 2 2 1 1 0 0 1 1 1 0 1 1 2 4 5 3 0 -1 1 1 -1 -3 -3 -1 3 7 8 7 6 4 1 -2 -4 -5 -5 -4 -4 -4 -5 -7 -8 -8 -7 -7 -8 -7 -8 -8 -8 -8 -8 -8 -8 -8 -8 -8 -9 -9 -9 -10 -10 -9 -9 -8 -7
0 0 0 0 0 0 0 1 1 1 1 1 1 1 1 1 1 1 2 1 2 2 2 2 2 1 0 -0 -1 -1 -1 -0 1 3 5 6 4 2 -0 -0 -0 -1 -1 -3 -3 -3 -1 1 4 5 5 2 1 -1 -3 -4 -4 -4 -3 -4 -6 -8 -8 -7 -6 -6 -6 -6 -6 -7 -6 -6 -6 -6 -6 -7 -7 -8 -8 -8 -9 -9 -9 -9 -9 -8
1 1 1 1 1 1 1 1 1 1 1 1 1 1 1 1 2 2 1 1 1 1 1 1 2 2 2 1 0 -1 -3 -3 -1 2 4 5 4 3 1 -0 -1 -1 0 -2 -2 -2 -3 -4 -2 1 3 2 1 -0 -1 -2 -3 -3 -3 -3 -5 -7 -8 -7 -6 -6 -6 -5 -5 -5 -5 -5 -5 -5 -5 -5 -6 -6 -7 -7 -8 -8 -8 -8 -8 -8
1 1 1 1 1 1 1 1 1 1 1 1 1 1 1 1 1 1 1 1 1 1 0 0 0 1 2 3 3 2 -1 -2 -2 0 2 3 4 4 3 -0 -1 -1 0 -2 -2 -1 -0 -2 -3 -1 1 2 1 -0 -1 -1 -1 -1 -3 -4 -5 -7 -8 -7 -7 -7 -7 -5 -5 -4 -4 -4 -3 -3 -3 -4 -5 -5 -6 -6 -7 -8 -8 -7 -8 -8
1 1 0 1 1 1 0 0 0 1 1 1 1 1 1 1 0 0 -0 0 0 0 -0 -1 -1 -1 0 1 2 3 1 -0 -1 -1 -0 1 2 3 3 0 -1 -1 0 -1 -2 -3 -1 -1 -2 -2 -1 1 2 1 -1 -1 -0 1 0 -1 -3 -6 -8 -8 -6 -6 -6 -6 -5 -4 -4 -4 -3 -3 -2 -3 -3 -4 -5 -5 -6 -7 -7 -7 -7 -7
1 0 0 0 1 1 0 0 0 0 1 1 1 1 0 0 -0 -0 -1 -1 -0 -0 -1 -2 -2 -2 -2 -1 -0 1 1 0 -1 -1 -1 -1 1 2 3 1 -1 -2 -1 -0 -1 -2 -2 -1 -1 -2 -3 -1 0 1 -0 -1 -0 1 1 2 2 -0 -5 -7 -7 -6 -5 -6 -5 -5 -3 -3 -3 -3 -3 -2 -2 -3 -3 -4 -4 -5 -5 -5 -4 -4
0 0 -0 -0 0 0 0 -0 -0 -0 0 1 1 0 0 -0 -0 -0 -0 -0 -0 -1 -1 -2 -3 -4 -4 -4 -3 -2 -1 -0 -1 -1 -1 -1 -0 1 2 1 -0 -2 -2 -2 -2 -2 -2 -3 -2 -1 -1 -2 -2 -2 -2 -2 -1 -0 1 1 2 1 -0 -4 -5 -5 -4 -5 -6 -6 -4 -2 -1 -2 -3 -2 -2 -2 -3 -3 -3 -3 -4 -3 -2 -1
-0 -0 -0 -0 -0 0 0 -0 -0 -0 -0 -0 -0 -0 0 -0 -1 -1 -1 -0 -0 -0 -1 -2 -3 -4 -4 -4 -4 -3 -2 -2 -1 -1 -1 -1 -1 -0 1 2 1 0 -1 -2 -3 -3 -4 -5 -5 -5 -3 -2 -1 -1 -1 -3 -4 -3 -0 1 1 1 1 -2 -4 -5 -3 -2 -3 -4 -5 -3 -1 -0 -1 -1 -1 -2 -3 -4 -4 -3 -3 -3 -3 -1
-0 -1 -1 -1 -0 0 0 -0 -0 -0 -0 -0 -0 -0 -1 -0 -1 -1 -2 -2 -1 -1 -1 -2 -3 -4 -6 -5 -4 -3 -2 -2 -2 -1 -1 -0 -0 -0 0 1 1 1 1 -1 -2 -4 -4 -5 -7 -7 -7 -5 -4 -3 -1 -2 -3 -4 -3 -2 -0 2 3 2 -1 -4 -6 -3 -2 -2 -3 -3 -2 -0 0 0 -0 -1 -2 -4 -5 -5 -3 -3 -3 -3
-0 -1 -1 -1 -1 -1 -1 -1 -1 -1 -1 -0 -0 -0 -1 -0 -0 -1 -2 -2 -3 -3 -3 -2 -2 -4 -6 -8 -8 -6 -4 -3 -3 -2 -2 -1 -1 -1 -1 -0 0 1 1 0 -1 -3 -4 -5 -6 -8 -8 -6 -5 -5 -6 -5 -4 -3 -3 -4 -4 -3 -1 1 2 0 -4 -5 -4 -2 -2 -2 -1 -0 1 1 1 0 -0 -2 -4 -5 -5 -4 -3 -3
-1 -1 -1 -1 -1 -1 -1 -1 -1 -1 -1 -1 -1 -1 -0 0 0 -0 -1 -1 -2 -3 -3 -2 -2 -2 -3 -7 -10 -10 -9 -7 -5 -4 -3 -2 -2 -2 -2 -2 -1 -0 1 1 -1 -3 -3 -3 -5 -7 -10 -8 -6 -5 -4 -5 -5 -5 -5 -4 -3 -3 -5 -4 -2 0 0 -1 -2 -3 -3 -2 -1 -0 1 1 1 1 1 -1 -2 -4 -4 -4 -4 -3
-1 -1 -1 -1 -1 -1 -1 -1 -1 -1 -1 -1 -1 -1 -1 -0 0 0 -0 -1 -2 -2 -2 -2 -2 -2 -2 -4 -7 -9 -11 -11 -9 -7 -5 -4 -3 -2 -2 -3 -3 -2 -0 1 0 -2 -4 -4 -4 -5 -7 -8 -9 -9 -8 -6 -4 -4 -5 -5 -4 -3 -3 -4 -4 -3 -2 -1 -1 -2 -4 -3 -2 -1 1 2 2 1 1 0 -1 -2 -3 -3 -3 -2
-1 -1 -1 -1 -1 -1 -1 -1 -1 -1 -1 -1 -1 -1 -1 -1 0 1 1 -0 -1 -2 -2 -1 -1 -2 -3 -5 -5 -6 -8 -10 -11 -10 -9 -7 -5 -3 -2 -2 -3 -3 -3 -2 -0 0 -0 -3 -4 -6 -5 -5 -6 -8 -9 -10 -8 -6 -4 -4 -5 -6 -6 -5 -5 -5 -5 -4 -3 -2 -3 -3 -3 -2 -1 1 3 3 3 1 -0 -1 -1 -1 -1 -1
-1 -1 -2 -2 -1 -1 -1 -2 -1 -1 -1 -1 -1 -1 -1 -0 0 1 1 1 0 -1 -2 -1 -0 0 -2 -4 -4 -5 -6 -8 -10 -11 -10 -9 -8 -7 -5 -4 -3 -3 -3 -4 -3 -2 -0 -1 -2 -4 -5 -6 -6 -6 -5 -8 -9 -10 -8 -5 -4 -5 -7 -6 -6 -6 -6 -5 -4 -4 -3 -3 -3 -3 -2 -0 2 4 5 3 1 -1 -2 -1 -0 0
-1 -1 -2 -2 -1 -1 -2 -1 -1 -1 -1 -1 -2 -1 -1 -1 -0 -0 -0 0 1 0 -1 -1 -1 -0 -1 -1 -1 -2 -2 -5 -7 -9 -10 -10 -9 -8 -7 -7 -5 -4 -3 -3 -4 -4 -4 -3 -3 -4 -4 -5 -6 -7 -7 -7 -8 -9 -9 -7 -6 -5 -5 -5 -5 -5 -5 -4 -4 -4 -5 -4 -4 -3 -2 0 2 4 5 4 2 0 -2 -2 -1 1
-2 -1 -2 -1 -1 -1 -2 -2 -1 -1 -1 -2 -2 -2 -2 -1 -0 -0 -1 -1 -0 0 0 -1 -1 -1 -2 -2 -1 -0 0 -1 -3 -5 -6 -7 -8 -8 -7 -7 -6 -5 -5 -4 -3 -3 -3 -3 -4 -5 -7 -6 -6 -5 -5 -7 -9 -10 -9 -7 -6 -5 -5 -4 -4 -4 -4 -4 -4 -4 -5 -6 -6 -6 -5 -2 1 4 5 5 4 2 -1 -2 -1 -0
-1 -1 -1 -1 -1 -1 -2 -2 -2 -1 -1 -2 -2 -3 -3 -2 -1 0 -0 -1 -1 -0 0 -0 -0 -1 -1 -2 -2 -2 -1 -1 -1 -2 -3 -4 -5 -5 -5 -5 -5 -4 -4 -4 -3 -3 -4 -3 -3 -3 -6 -9 -9 -8 -5 -4 -6 -8 -9 -8 -6 -6 -6 -5 -4 -3 -3 -3 -3 -4 -5 -6 -7 -7 -7 -5 -2 1 4 6 5 3 1 -1 -1 -0
-1 -1 -1 -1 -1 -1 -2 -2 -2 -2 -2 -2 -2 -2 -3 -3 -3 -2 -1 -0 -0 0 0 0 0 0 -1 -2 -2 -2 -2 -2 -2 -3 -3 -3 -3 -3 -3 -3 -2 -2 -3 -2 -1 -1 -2 -2 -2 -2 -2 -5 -8 -11 -11 -8 -6 -5 -6 -6 -7 -6 -7 -5 -5 -4 -3 -3 -3 -3 -4 -5 -6 -7 -7 -6 -4 -2 2 4 5 4 2 0 0 1
-1 -0 -0 -0 -0 -1 -1 -1 -1 -2 -2 -2 -2 -2 -2 -3 -3 -3 -2 -1 -1 -1 -1 -0 0 1 0 -1 -1 -2 -2 -2 -2 -3 -4 -3 -3 -3 -3 -2 -1 -0 -0 -0 1 2 2 1 1 1 0 -1 -3 -6 -12 -12 -10 -7 -5 -5 -5 -6 -8 -6 -5 -4 -3 -3 -3 -2 -3 -4 -4 -5 -5 -6 -5 -3 0 3 5 5 3 1 1 2
Height
5695 5693 5693 5693 5692 5691 5690 5690 5690 5689 5687 5687 5687 5686 5686 5685 5684 5684 5683 5683 5682 5682 5681 5681 5681 5681 5681 5681 5680 5680 5679 5678 5678 5677 5676 5676 5675 5674 5673 5673 5672 5671 5671 5670 5670 5669 5668 5668 5667 5667 5666 5666 5665 5665 5664 5664 5664 5663 5663 5663 5662 5662 5662 5661 5661 5661 5661 5661 5660 5660 5660 5659 5659 5658 5658 5658 5657 5657 5656 5656 5656 5655 5655 5654 5654 5653
5690 5688 5687 5686 5686 5686 5684 5683 5683 5683 5682 5681 5680 5680 5680 5679 5679 5678 5678 5677 5677 5677 5676 5676 5676 5676 5676 5676 5675 5675 5674 5674 5673 5672 5672 5671 5671 5670 5670 5669 5668 5668 5667 5667 5666 5666 5666 5665 5665 5664 5664 5663 5663 5662 5662 5661 5661 5661 5661 5660 5660 5660 5659 5659 5659 5658 5658 5658 5657 5657 5656 5656 5656 5655 5655 5654 5654 5653 5653 5652 5652 5651 5651 5650 5650 5649
5685 5683 5681 5681 5681 5680 5678 5677 5676 5676 5675 5674 5674 5674 5674 5674 5673 5673 5672 5672 5672 5672 5672 5672 5672 5672 5671 5671 5671 5670 5670 5669 5669 5668 5668 5667 5667 5666 5666 5666 5665 5665 5664 5664 5663 5663 5663 5662 5662 5661 5661 5661 5660 5660 5659 5659 5658 5658 5658 5657 5657 5657 5656 5656 5656 5656 5655 5655 5654 5654 5653 5653 5652 5652 5651 5651 5650 5650 5649 5648 5648 5647 5646 5646 5645 5645
5679 5677 5675 5675 5674 5673 5672 5671 5670 5669 5668 5668 5668 5668 5668 5668 5668 5668 5668 5668 5667 5667 5667 5667 5667 5667 5666 5666 5666 5666 5665 5665 5665 5664 5664 5664 5663 5663 5663 5662 5662 5661 5661 5661 5661 5660 5660 5660 5659 5659 5658 5658 5657 5657 5656 5656 5656 5656 5655 5655 5654 5654 5654 5653 5653 5652 5652 5651 5651 5651 5650 5649 5649 5648 5648 5647 5646 5646 5645 5644 5643 5643 5642 5641 5641 5640
5672 5671 5669 5668 5668 5666 5665 5664 5664 5663 5662 5662 5662 5662 5662 5663 5663 5663 5663 5663 5662 5662 5662 5662 5662 5662 5662 5662 5661 5661 5661 5661 5661 5661 5661 5660 5660 5660 5659 5659 5659 5659 5658 5658 5658 5657 5657 5657 5656 5656 5656 5655 5655 5654 5654 5653 5653 5653 5652 5652 5651 5651 5651 5650 5650 5649 5649 5648 5648 5647 5646 5646 5645 5645 5644 5643 5642 5642 5641 5640 5639 5638 5637 5636 5636 5635
5665 5664 5663 5662 5661 5660 5658 5658 5658 5657 5657 5657 5657 5657 5658 5658 5658 5658 5658 5658 5658 5657 5657 5657 5658 5658 5658 5658 5658 5658 5658 5658 5657 5657 5657 5657 5657 5656 5656 5656 5656 5656 5656 5656 5655 5655 5655 5654 5654 5653 5653 5652 5652 5651 5651 5651 5650 5650 5649 5649 5648 5648 5648 5647 5646 5646 5646 5645 5644 5643 5643 5642 5641 5641 5640 5639 5638 5637 5636 5635 5634 5633 5632 5631 5631 5630
5658 5657 5656 5655 5654 5653 5653 5652 5652 5652 5652 5652 5652 5652 5653 5653 5653 5653 5653 5653 5653 5653 5653 5653 5654 5654 5655 5655 5655 5655 5655 5654 5654 5654 5654 5654 5654 5654 5654 5653 5653 5653 5653 5653 5652 5652 5652 5651 5651 5651 5650 5650 5649 5649 5648 5648 5647 5647 5646 5646 5646 5645 5645 5644 5643 5642 5642 5641 5640 5640 5639 5638 5637 5636 5635 5634 5633 5632 5631 5630 5629 5628 5627 5626 5625 5624
5652 5650 5649 5649 5649 5648 5647 5647 5647 5647 5648 5648 5648 5648 5648 5648 5649 5649 5649 5649 5649 5650 5650 5650 5650 5651 5651 5651 5651 5651 5651 5651 5651 5651 5651 5651 5651 5651 5651 5651 5651 5650 5650 5650 5650 5649 5649 5649 5648 5648 5647 5647 5646 5646 5646 5645 5645 5644 5643 5643 5642 5641 5641 5640 5639 5638 5638 5637 5636 5635 5634 5633 5632 5631 5631 5630 5628 5627 5626 5625 5624 5623 5622 5621 5619 5618
5646 5645 5644 5644 5644 5644 5643 5642 5642 5643 5644 5644 5644 5644 5645 5645 5645 5646 5646 5646 5646 5647 5647 5647 5647 5648 5648 5648 5648 5648 5648 5648 5648 5648 5648 5648 5648 5648 5648 5648 5648 5647 5647 5647 5647 5646 5646 5646 5645 5645 5645 5644 5644 5643 5642 5642 5641 5641 5640 5639 5638 5638 5637 5636 5635 5634 5633 5632 5632 5631 5630 5629 5628 5627 5626 5625 5624 5622 5621 5620 5619 5617 5616 5615 5613 5611
5641 5641 5640 5639 5639 5639 5640 5639 5638 5639 5640 5640 5641 5641 5642 5642 5642 5643 5643 5644 5644 5644 5645 5645 5645 5645 5645 5645 5646 5646 5646 5646 5646 5646 5645 5645 5645 5645 5645 5645 5645 5645 5644 5644 5644 5643 5643 5643 5642 5642 5641 5641 5641 5640 5639 5638 5638 5637 5636 5635 5634 5633 5632 5632 5631 5630 5629 5628 5627 5626 5626 5625 5624 5622 5621 5620 5618 5617 5616 5614 5613 5611 5610 5608 5606 5605
5637 5636 5636 5636 5635 5635 5636 5636 5636 5636 5637 5637 5638 5638 5639 5640 5640 5641 5641 5641 5642 5642 5642 5642 5642 5642 5642 5642 5643 5643 5643 5643 5643 5643 5643 5643 5642 5642 5642 5642 5642 5641 5641 5641 5641 5641 5640 5640 5639 5639 5638 5638 5637 5636 5636 5635 5634 5633 5632 5631 5630 5629 5629 5628 5627 5626 5625 5624 5623 5622 5621 5620 5619 5617 5616 5615 5613 5611 5610 5608 5606 5605 5603 5601 5600 5598
5633 5633 5633 5633 5633 5633 5633 5634 5634 5634 5635 5636 5636 5636 5637 5638 5638 5639 5639 5639 5640 5640 5640 5640 5640 5640 5640 5640 5640 5640 5640 5640 5641 5641 5641 5640 5640 5640 5639 5639 5639 5639 5638 5638 5638 5637 5637 5636 5636 5636 5635 5634 5633 5632 5631 5631 5630 5629 5628 5627 5626 5626 5625 5624 5623 5622 5621 5620 5619 5617 5616 5615 5614 5612 5611 5609 5607 5606 5604 5602 5600 5598 5596 5595 5593 5591
5631 5631 5631 5631 5631 5632 5632 5632 5632 5633 5633 5634 5634 5635 5635 5636 5636 5636 5637 5637 5638 5638 5638 5638 5638 5638 5637 5637 5637 5637 5637 5637 5638 5638 5638 5637 5637 5636 5636 5636 5636 5636 5635 5635 5634 5634 5634 5633 5632 5631 5631 5630 5629 5628 5628 5627 5626 5625 5625 5624 5623 5622 5621 5620 5619 5617 5616 5615 5614 5612 5611 5610 5608 5606 5605 5603 5601 5600 5598 5596 5594 5592 5590 5588 5586 5583
5630 5630 5630 5630 5630 5630 5631 5631 5631 5631 5632 5632 5633 5633 5633 5634 5634 5634 5635 5635 5635 5636 5636 5636 5636 5636 5636 5635 5635 5635 5635 5635 5635 5635 5635 5635 5634 5634 5633 5632 5632 5632 5632 5631 5631 5630 5630 5629 5628 5627 5627 5626 5625 5625 5624 5623 5622 5621 5621 5620 5619 5618 5616 5615 5614 5613 5611 5610 5609 5607 5606 5604 5603 5601 5599 5597 5596 5594 5591 5590 5587 5585 5583 5581 5578 5576
5629 5629 5629 5629 5629 5629 5630 5630 5630 5630 5631 5631 5631 5631 5631 5632 5632 5632 5633 5633 5633 5633 5634 5634 5634 5634 5634 5633 5633 5632 5632 5632 5632 5632 5632 5632 5631 5631 5630 5629 5629 5628 5628 5627 5626 5626 5626 5625 5624 5623 5623 5622 5621 5621 5620 5619 5618 5617 5616 5616 5614 5613 5612 5611 5609 5608 5606 5605 5604 5602 5601 5599 5597 5595 5593 5591 5590 5587 5585 5583 5581 5578 5576 5573 5571 5568
5628 5628 5628 5628 5628 5628 5629 5629 5629 5629 5630 5630 5630 5630 5630 5631 5631 5631 5631 5631 5631 5631 5631 5632 5632 5632 5632 5631 5631 5630 5630 5629 5629 5629 5629 5629 5628 5628 5627 5626 5625 5625 5624 5623 5622 5622 5621 5621 5620 5620 5619 5618 5618 5617 5616 5615 5614 5613 5612 5611 5610 5609 5607 5606 5605 5603 5601 5600 5598 5597 5595 5593 5591 5590 5588 5586 5583 5581 5579 5576 5574 5571 5569 5566 5563 5560
5628 5628 5627 5627 5627 5628 5628 5628 5628 5628 5628 5628 5628 5628 5629 5629 5629 5629 5629 5629 5630 5630 5630 5630 5630 5630 5630 5630 5629 5628 5628 5627 5626 5626 5626 5626 5625 5625 5624 5622 5621 5621 5620 5620 5619 5618 5618 5617 5617 5616 5616 5615 5614 5613 5612 5611 5611 5609 5608 5607 5606 5604 5603 5601 5600 5598 5597 5595 5593 5591 5590 5588 5586 5584 5582 5580 5577 5575 5572 5570 5567 5564 5561 5558 5555 5552
5627 5627 5627 5627 5627 5627 5627 5627 5627 5627 5627 5627 5627 5627 5627 5627 5627 5627 5627 5628 5628 5628 5628 5628 5627 5627 5627 5627 5627 5626 5626 5624 5624 5624 5623 5623 5622 5621 5620 5619 5618 5617 5617 5616 5616 5615 5615 5614 5613 5613 5612 5611 5611 5610 5608 5607 5606 5605 5604 5602 5601 5599 5598 5596 5595 5593 5591 5590 5588 5586 5584 5582 5580 5578 5576 5573 5571 5568 5566 5563 5560 5557 5554 5550 5547 5543
5627 5627 5626 5626 5626 5626 5626 5626 5626 5626 5626 5626 5626 5626 5626 5626 5626 5626 5626 5626 5626 5626 5626 5626 5626 5625 5625 5625 5624 5623 5623 5621 5621 5621 5620 5620 5619 5618 5617 5616 5615 5614 5614 5613 5612 5612 5611 5611 5610 5609 5608 5607 5606 5606 5604 5603 5602 5601 5599 5597 5596 5595 5593 5591 5590 5588 5586 5584 5582 5581 5578 5576 5574 5571 5569 5566 5564 5561 5559 5556 5552 5549 5546 5542 5539 5535
5626 5626 5626 5626 5626 5625 5625 5625 5625 5625 5625 5625 5624 5625 5625 5625 5624 5624 5624 5624 5624 5624 5624 5624 5623 5623 5623 5623 5622 5621 5620 5619 5618 5617 5617 5616 5616 5615 5614 5613 5612 5611 5611 5610 5609 5608 5607 5607 5606 5605 5604 5603 5602 5601 5600 5599 5597 5596 5594 5593 5591 5589 5588 5586 5584 5582 5581 5579 5577 5575 5572 5570 5568 5565 5562 5560 5557 5554 5551 5548 5545 5542 5538 5535 5531 5527
5626 5626 5625 5625 5625 5624 5624 5624 5624 5623 5623 5623 5623 5623 5623 5623 5623 5623 5622 5622 5622 5622 5622 5622 5621 5621 5621 5621 5620 5619 5618 5617 5616 5615 5615 5614 5613 5612 5611 5611 5609 5608 5607 5606 5605 5605 5604 5603 5602 5601 5600 5599 5598 5596 5595 5594 5592 5591 5589 5587 5586 5584 5582 5581 5579 5577 5575 5573 5571 5568 5566 5564 5561 5558 5556 5553 5550 5547 5544 5541 5538 5534 5531 5527 5523 5520
5625 5625 5624 5624 5623 5623 5623 5623 5622 5622 5622 5621 5621 5621 5621 5621 5621 5621 5621 5621 5620 5620 5620 5620 5619 5619 5619 5618 5617 5616 5616 5615 5614 5613 5612 5611 5611 5610 5609 5608 5606 5605 5604 5603 5601 5601 5599 5598 5597 5596 5596 5594 5593 5592 5590 5589 5587 5586 5584 5582 5581 5579 5577 5575 5573 5571 5569 5566 5564 5562 5559 5557 5554 5551 5548 5546 5543 5540 5536 5533 5530 5527 5523 5520 5516 5513
5624 5623 5623 5622 5622 5622 5621 5621 5621 5621 5620 5620 5620 5620 5620 5619 5619 5619 5619 5618 5618 5618 5617 5617 5617 5616 5616 5616 5615 5615 5614 5613 5612 5611 5610 5609 5608 5607 5606 5605 5603 5601 5600 5599 5598 5596 5595 5594 5593 5592 5591 5589 5588 5587 5585 5584 5582 5581 5579 5577 5575 5573 5571 5569 5567 5565 5563 5560 5558 5555 5553 5550 5547 5544 5541 5538 5535 5532 5529 5526 5523 5519 5516 5513 5509 5506
5622 5622 5621 5621 5621 5621 5620 5620 5620 5619 5619 5618 5618 5618 5617 5617 5617 5616 5616 5616 5616 5615 5615 5615 5614 5614 5614 5613 5613 5612 5611 5611 5610 5609 5608 5606 5606 5605 5604 5602 5600 5598 5596 5595 5594 5592 5590 5589 5588 5587 5586 5584 5583 5582 5580 5579 5577 5575 5573 5571 5570 5567 5565 5563 5561 5559 5556 5554 5551 5549 5546 5543 5540 5537 5534 5531 5528 5525 5521 5518 5515 5512 5509 5506 5502 5499
5621 5621 5620 5620 5619 5619 5619 5618 5618 5618 5617 5617 5616 5616 5616 5615 5615 5615 5614 5614 5613 5613 5612 5612 5611 5611 5611 5611 5611 5610 5609 5608 5607 5606 5605 5604 5603 5601 5600 5599 5597 5595 5592 5591 5589 5588 5586 5584 5583 5582 5581 5579 5578 5576 5575 5573 5571 5570 5568 5566 5564 5562 5559 5557 5555 5552 5550 5547 5545 5542 5539 5536 5533 5530 5526 5523 5520 5517 5514 5511 5508 5505 5502 5499 5496 5492
5620 5619 5619 5618 5618 5618 5617 5617 5616 5616 5616 5615 5615 5614 5614 5613 5613 5612 5612 5612 5611 5611 5610 5609 5609 5608 5608 5608 5608 5607 5606 5605 5604 5603 5602 5601 5599 5598 5597 5595 5593 5591 5588 5586 5585 5583 5581 5580 5578 5577 5575 5574 5572 5571 5570 5568 5566 5564 5562 5560 5558 5556 5553 5551 5548 5546 5543 5541 5538 5535 5532 5529 5526 5522 5519 5516 5513 5510 5506 5504 5501 5498 5495 5492 5489 5486
5618 5618 5617 5617 5616 5616 5616 5615 5615 5614 5614 5613 5613 5612 5611 5611 5611 5610 5610 5610 5609 5608 5607 5606 5606 5606 5605 5605 5604 5604 5603 5602 5601 5599 5598 5597 5596 5594 5593 5592 5590 5587 5585 5582 5580 5579 5577 5575 5573 5572 5570 5569 5567 5566 5564 5562 5560 5558 5556 5554 5552 5550 5547 5545 5542 5540 5537 5534 5531 5528 5525 5522 5519 5515 5512 5509 5506 5502 5499 5496 5494 5491 5488 5486 5482 5480
5616 5616 5616 5615 5615 5614 5614 5613 5613 5612 5612 5611 5611 5610 5609 5609 5608 5608 5607 5607 5606 5606 5605 5604 5603 5603 5602 5601 5601 5601 5600 5599 5597 5596 5595 5593 5591 5590 5589 5588 5586 5584 5582 5579 5576 5574 5573 5571 5569 5567 5565 5563 5562 5560 5558 5556 5555 5552 5550 5548 5546 5544 5541 5539 5536 5533 5531 5528 5525 5521 5518 5515 5511 5508 5505 5501 5498 5495 5492 5490 5487 5485 5482 5479 5476 5473
5615 5614 5614 5613 5613 5612 5612 5611 5611 5611 5610 5609 5609 5608 5607 5606 5606 5606 5605 5604 5604 5603 5602 5601 5601 5600 5599 5598 5598 5597 5597 5596 5594 5592 5591 5589 5587 5586 5586 5584 5582 5581 5579 5576 5573 5570 5568 5566 5565 5563 5560 5558 5556 5555 5553 5551 5549 5546 5544 5542 5540 5537 5535 5533 5530 5527 5524 5521 5518 5515 5512 5508 5505 5501 5498 5495 5491 5488 5486 5483 5481 5478 5476 5473 5470 5467
5613 5612 5612 5611 5611 5611 5610 5609 5609 5608 5608 5607 5606 5606 5605 5604 5603 5603 5602 5601 5601 5601 5600 5599 5598 5597 5596 5595 5594 5594 5593 5592 5591 5589 5587 5585 5584 5582 5581 5580 5578 5577 5576 5574 5571 5567 5564 5562 5560 5558 5556 5553 5551 5550 5548 5546 5543 5541 5539 5536 5534 5531 5529 5526 5524 5521 5518 5515 5512 5509 5505 5502 5498 5495 5491 5488 5485 5482 5479 5476 5474 5471 5469 5467 5465 5462
5611 5610 5610 5609 5609 5608 5607 5607 5606 5606 5605 5605 5604 5603 5602 5602 5601 5600 5600 5599 5598 5598 5597 5596 5595 5594 5593 5592 5591 5590 5589 5589 5587 5586 5584 5581 5580 5578 5577 5576 5574 5572 5571 5570 5568 5565 5561 5558 5556 5554 5551 5549 5546 5545 5543 5541 5538 5536 5533 5531 5528 5526 5523 5521 5518 5515 5512 5509 5506 5502 5499 5496 5492 5489 5485 5482 5478 5475 5472 5470 5467 5465 5463 5461 5459 5456
5609 5608 5607 5607 5606 5606 5605 5604 5604 5603 5603 5602 5601 5601 5600 5599 5598 5598 5597 5596 5595 5595 5594 5593 5592 5591 5590 5589 5587 5586 5586 5585 5584 5582 5580 5578 5576 5574 5573 5571 5570 5568 5566 5565 5564 5561 5559 5556 5553 5550 5547 5545 5542 5540 5537 5536 5533 5531 5528 5525 5522 5520 5517 5515 5513 5510 5506 5503 5500 5497 5493 5490 5486 5483 5479 5476 5472 5469 5466 5463 5461 5459 5457 5456 5454 5451
5606 5606 5605 5605 5604 5603 5603 5602 5601 5601 5600 5599 5599 5598 5597 5596 5596 5595 5594 5593 5592 5591 5591 5590 5589 5588 5587 5586 5584 5583 5582 5581 5580 5578 5576 5574 5572 5570 5569 5567 5566 5563 5561 5560 5558 5557 5555 5552 5550 5547 5543 5541 5538 5535 5533 5531 5528 5526 5523 5520 5517 5515 5512 5510 5507 5504 5501 5498 5495 5491 5488 5485 5481 5477 5473 5470 5466 5463 5460 5457 5455 5453 5451 5450 5448 5446
5605 5604 5603 5602 5602 5601 5600 5600 5599 5598 5597 5597 5596 5595 5595 5594 5593 5592 5591 5590 5589 5588 5587 5586 5585 5584 5583 5582 5581 5579 5578 5577 5576 5574 5572 5570 5568 5566 5565 5563 5561 5559 5557 5555 5553 5552 5550 5548 5546 5543 5540 5537 5534 5531 5528 5526 5523 5521 5518 5515 5512 5510 5507 5505 5502 5499 5496 5493 5490 5486 5483 5479 5476 5472 5468 5465 5461 5458 5455 5452 5449 5447 5445 5444 5442 5441
5602 5601 5601 5600 5599 5599 5598 5597 5596 5596 5595 5594 5593 5592 5591 5591 5590 5589 5588 5587 5586 5585 5583 5582 5581 5580 5579 5578 5576 5575 5574 5573 5571 5570 5568 5566 5564 5562 5561 5559 5557 5555 5553 5551 5549 5547 5545 5542 5541 5539 5536 5533 5530 5526 5524 5522 5519 5516 5513 5510 5507 5504 5501 5499 5497 5495 5491 5488 5485 5481 5478 5475 5471 5467 5463 5460 5456 5453 5450 5447 5444 5442 5440 5438 5436 5435
5600 5599 5598 5597 5597 5596 5595 5594 5593 5593 5592 5591 5590 5589 5588 5587 5586 5585 5584 5583 5582 5581 5580 5579 5577 5576 5575 5573 5572 5571 5569 5568 5567 5566 5564 5562 5561 5558 5556 5554 5552 5551 5549 5546 5544 5542 5540 5537 5535 5533 5531 5529 5526 5523 5520 5517 5515 5512 5509 5506 5502 5499 5496 5494 5492 5489 5486 5483 5480 5477 5474 5470 5467 5463 5459 5456 5452 5449 5445 5442 5440 5437 5435 5433 5431 5430
5597 5596 5596 5595 5594 5593 5592 5591 5591 5590 5589 5588 5587 5586 5585 5584 5583 5582 5581 5580 5578 5577 5576 5575 5573 5572 5571 5569 5568 5566 5565 5564 5562 5561 5560 5558 5556 5554 5552 5550 5548 5546 5544 5541 5539 5537 5536 5533 5531 5528 5526 5524 5521 5519 5516 5513 5511 5508 5505 5502 5498 5495 5491 5488 5486 5484 5481 5478 5475 5472 5469 5466 5462 5459 5455 5451 5448 5444 5441 5438 5436 5433 5431 5429 5427 5425
5594 5593 5593 5592 5591 5590 5589 5588 5587 5586 5586 5585 5584 5583 5581 5581 5579 5578 5577 5576 5575 5573 5572 5570 5569 5568 5566 5565 5564 5562 5561 5559 5558 5556 5555 5554 5552 5550 5548 5545 5543 5541 5539 5537 5534 5532 5530 5528 5526 5524 5521 5519 5516 5514 5511 5509 5506 5504 5501 5498 5494 5491 5487 5484 5481 5478 5476 5473 5470 5467 5464 5461 5458 5454 5451 5447 5444 5441 5437 5434 5432 5430 5427 5426 5423 5421
5591 5590 5590 5589 5588 5587 5586 5585 5584 5583 5582 5581 5580 5579 5578 5577 5576 5575 5573 5572 5571 5569 5568 5566 5565 5563 5562 5561 5560 5558 5557 5555 5554 5552 5551 5549 5547 5546 5543 5541 5538 5536 5534 5531 5529 5527 5525 5522 5521 5519 5516 5514 5512 5509 5506 5504 5502 5500 5497 5494 5490 5486 5483 5479 5476 5474 5471 5468 5466 5462 5459 5456 5453 5450 5446 5443 5440 5436 5434 5431 5428 5426 5424 5422 5421 5418
5588 5587 5586 5586 5585 5584 5583 5582 5581 5580 5579 5578 5577 5576 5575 5573 5572 5571 5569 5568 5567 5565 5564 5562 5561 5559 5557 5556 5555 5554 5552 5551 5549 5548 5546 5544 5542 5541 5539 5536 5534 5531 5529 5526 5524 5521 5520 5517 5515 5513 5511 5509 5507 5504 5501 5499 5496 5494 5492 5490 5487 5483 5479 5475 5472 5469 5466 5463 5461 5458 5455 5452 5449 5446 5442 5439 5435 5432 5430 5427 5425 5422 5421 5419 5418 5416
5585 5584 5583 5582 5581 5581 5579 5578 5577 5576 5576 5575 5573 5572 5571 5570 5568 5567 5566 5564 5563 5561 5560 5558 5556 5555 5553 5552 5551 5549 5548 5546 5545 5543 5541 5540 5538 5536 5534 5532 5529 5527 5524 5521 5519 5516 5514 5512 5509 5507 5505 5503 5501 5499 5496 5493 5491 5489 5487 5485 5482 5479 5475 5471 5468 5465 5462 5458 5456 5453 5450 5447 5444 5441 5438 5435 5431 5428 5425 5423 5421 5418 5416 5415 5414 5413
5582 5581 5580 5579 5578 5577 5576 5575 5574 5573 5572 5571 5570 5568 5567 5566 5565 5563 5561 5560 5559 5557 5556 5554 5552 5550 5548 5547 5546 5544 5543 5541 5540 5538 5536 5535 5533 5531 5529 5527 5525 5522 5520 5517 5514 5511 5509 5506 5504 5501 5499 5497 5496 5493 5491 5488 5486 5483 5481 5479 5477 5474 5471 5467 5463 5461 5457 5454 5451 5448 5446 5443 5440 5437 5434 5431 5427 5424 5421 5419 5416 5414 5413 5411 5410 5408
5578 5577 5576 5576 5575 5574 5573 5572 5571 5570 5568 5567 5566 5565 5564 5562 5561 5559 5558 5556 5555 5553 5552 5550 5548 5546 5544 5542 5541 5539 5538 5536 5535 5533 5531 5530 5528 5526 5524 5521 5520 5517 5515 5513 5510 5506 5503 5501 5498 5496 5493 5491 5490 5488 5486 5483 5481 5478 5476 5473 5471 5470 5466 5463 5459 5456 5453 5450 5446 5443 5441 5438 5436 5433 5430 5427 5424 5421 5417 5415 5412 5410 5409 5407 5406 5404
5575 5574 5573 5572 5571 5571 5569 5568 5567 5566 5565 5564 5562 5561 5560 5559 5557 5556 5554 5552 5551 5549 5548 5546 5544 5542 5540 5538 5536 5534 5532 5531 5530 5528 5526 5525 5523 5521 5519 5516 5514 5512 5510 5508 5506 5502 5499 5496 5493 5490 5488 5486 5484 5481 5479 5477 5476 5473 5471 5468 5466 5464 5461 5458 5455 5452 5449 5445 5442 5439 5436 5433 5431 5428 5426 5423 5420 5417 5414 5411 5409 5406 5405 5403 5402 5400
5572 5571 5570 5569 5568 5567 5566 5565 5564 5562 5561 5560 5559 5557 5556 5555 5553 5552 5550 5549 5547 5546 5544 5542 5540 5538 5536 5534 5532 5530 5528 5526 5524 5523 5521 5520 5518 5516 5514 5512 5510 5507 5505 5502 5500 5498 5495 5492 5489 5485 5482 5480 5478 5476 5474 5472 5470 5468 5466 5463 5461 5458 5455 5452 5449 5447 5444 5441 5437 5434 5431 5429 5426 5424 5421 5419 5416 5413 5410 5408 5405 5403 5401 5400 5398 5397
5569 5568 5566 5566 5565 5563 5562 5561 5560 5559 5557 5556 5555 5554 5552 5551 5550 5548 5546 5545 5543 5541 5540 5538 5536 5534 5532 5530 5528 5526 5524 5521 5519 5518 5516 5515 5513 5511 5509 5507 5505 5502 5500 5497 5495 5492 5490 5487 5484 5481 5478 5476 5473 5470 5468 5466 5465 5463 5461 5458 5456 5453 5450 5447 5444 5441 5439 5436 5433 5430 5427 5424 5422 5420 5418 5415 5413 5410 5407 5404 5401 5399 5397 5396 5395 5393
5565 5564 5563 5562 5561 5560 5559 5558 5556 5555 5554 5553 5551 5550 5549 5547 5546 5544 5543 5541 5540 5537 5536 5534 5532 5530 5528 5526 5524 5522 5520 5517 5515 5513 5511 5510 5508 5506 5504 5502 5500 5498 5495 5493 5490 5487 5484 5481 5478 5476 5474 5471 5468 5465 5462 5461 5459 5457 5455 5453 5451 5449 5446 5443 5440 5436 5434 5431 5428 5425 5422 5420 5417 5415 5413 5411 5409 5406 5403 5400 5398 5395 5394 5392 5391 5390
5562 5561 5560 5559 5558 5556 5555 5554 5553 5551 5550 5549 5547 5546 5545 5543 5542 5540 5539 5537 5536 5534 5532 5530 5528 5526 5524 5522 5520 5518 5516 5514 5511 5509 5507 5505 5503 5501 5499 5497 5495 5493 5491 5488 5486 5483 5480 5476 5473 5470 5468 5466 5463 5461 5458 5456 5454 5452 5450 5448 5446 5444 5441 5439 5436 5432 5430 5426 5423 5420 5417 5415 5413 5411 5409 5407 5405 5403 5400 5397 5394 5391 5390 5388 5387 5386
5558 5557 5556 5555 5554 5553 5551 5550 5549 5548 5546 5545 5544 5542 5541 5539 5538 5536 5535 5533 5531 5530 5528 5526 5524 5522 5520 5518 5516 5514 5512 5510 5507 5505 5503 5501 5499 5497 5495 5493 5491 5489 5486 5484 5481 5478 5475 5472 5468 5464 5462 5460 5458 5456 5453 5450 5449 5447 5445 5443 5441 5439 5437 5434 5431 5429 5426 5422 5419 5416 5413 5410 5407 5406 5404 5402 5400 5398 5396 5394 5391 5388 5386 5385 5383 5382
5555 5554 5553 5552 5551 5549 5548 5547 5545 5544 5543 5541 5540 5538 5537 5535 5534 5532 5531 5529 5527 5526 5524 5522 5520 5518 5515 5513 5511 5510 5507 5506 5503 5501 5499 5497 5495 5493 5491 5489 5487 5485 5483 5480 5477 5475 5472 5469 5464 5460 5456 5454 5453 5451 5448 5446 5444 5442 5441 5439 5436 5434 5432 5430 5427 5425 5422 5418 5415 5412 5409 5406 5403 5401 5399 5397 5395 5393 5392 5390 5387 5385 5382 5381 5380 5378
5552 5551 5549 5548 5547 5546 5544 5543 5542 5540 5539 5537 5536 5534 5533 5531 5530 5528 5526 5525 5523 5521 5519 5518 5516 5514 5511 5509 5507 5505 5503 5501 5499 5496 5494 5492 5491 5489 5487 5485 5484 5482 5480 5477 5475 5472 5470 5467 5463 5458 5453 5448 5446 5446 5443 5441 5439 5438 5436 5434 5432 5430 5427 5425 5423 5420 5418 5415 5411 5408 5405 5402 5399 5396 5395 5393 5391 5388 5387 5386 5384 5381 5379 5377 5376 5375